Location: Champs
(48.8539°N, 2.6040°E)
Time: 03:34:49
(UTC+00:00)

Cosmos 2333 Rocket - Pass Details

Date: 26 October 2021
Orbit: 837 x 865 km, 70.8° (Epoch: 30 November)

Event Time Altitude Azimuth Distance (km) Brightness Sun altitude
Exits shadow 04:45:21 - 324° (NW) 2,585 4.4 -17.3°
Reaches altitude 10° 04:45:34 10° 324° (NW) 2,509 4.3 -17.3°
Maximum altitude 04:51:09 53° 249° (WSW) 1,050 2.3 -16.3°
Drops below altitude 10° 04:56:44 10° 174° (S) 2,499 4.7 -15.4°
Sets 04:59:14 0° 169° (S) 3,432 5.5 -15.0°
